Tracking 22836 objects as of 18-Apr-2021
HD Live streaming from Space Station
objects crossing your sky now

STARLINK-1171

Track STARLINK-1171 now!
10-day predictions
STARLINK-1171 is classified as:


NORAD ID: 45062
Int'l Code: 2020-006U
Perigee: 553.2 km
Apogee: 555.5 km
Inclination: 53.1 °
Period: 95.6 minutes
Semi major axis: 6925 km
RCS: Unknown
Launch date: January 29, 2020
Source: United States (US)
Launch site: AIR FORCE EASTERN TEST RANGE (AFETR)
aabbcc
Your satellite tracking list
Your tracking list is empty




NASA's NSSDC Master Catalog

Two Line Element Set (TLE):
1 45062U 20006U   21107.49803585 -.00000304  00000-0 -14929-5 0  9997
2 45062  53.0558  29.6396 0001644  77.6021 282.5152 15.06397955 67095
Source of the keplerian elements: AFSPC